Time,TemperatureF,DewpointF,PressureIn,WindDirection,WindDirectionDegrees,WindSpeedMPH,WindSpeedGustMPH,Humidity,HourlyPrecipIn,Conditions,Clouds,dailyrainin,SolarRadiationWatts/m^2,SoftwareType,DateUTC
2015-06-03 00:00:00,52.1,46.8,29.86,WSW,246,6.9,6.9,82,0.00,BKN,,0.24,5.0,WeatherDisplay:10.37,2015-06-02 23:00:00,
2015-06-03 00:05:00,52.1,46.8,29.87,West,260,5.0,9.0,82,0.00,RA,,0.00,0.0,WeatherDisplay:10.37,2015-06-02 23:05:00,
2015-06-03 00:10:00,52.0,46.7,29.87,SW,235,11.5,11.5,82,0.00,RA,,0.00,5.0,WeatherDisplay:10.37,2015-06-02 23:10:00,
2015-06-03 00:15:00,52.0,46.3,29.87,WSW,255,11.5,11.5,81,0.00,BKN,,0.00,5.0,WeatherDisplay:10.37,2015-06-02 23:15:00,
2015-06-03 00:20:00,51.9,46.3,29.87,WSW,241,8.1,8.1,81,0.00,BKN,,0.00,5.0,WeatherDisplay:10.37,2015-06-02 23:20:00,
2015-06-03 00:25:00,51.9,46.6,29.87,WSW,255,3.0,8.0,82,0.00,BKN,,0.00,0.0,WeatherDisplay:10.37,2015-06-02 23:25:00,
2015-06-03 00:30:00,51.9,46.6,29.87,SW,229,6.9,6.9,82,0.00,CLR,,0.00,5.0,WeatherDisplay:10.37,2015-06-02 23:30:00,
2015-06-03 00:35:00,51.9,46.6,29.87,WSW,246,3.0,10.0,82,0.00,BKN,,0.00,0.0,WeatherDisplay:10.37,2015-06-02 23:35:00,
2015-06-03 00:40:00,51.9,46.6,29.87,West,262,5.8,5.8,82,0.00,BKN,,0.00,5.0,WeatherDisplay:10.37,2015-06-02 23:40:00,
2015-06-03 00:45:00,51.9,46.6,29.88,WSW,245,2.0,10.0,82,0.00,BKN,,0.00,0.0,WeatherDisplay:10.37,2015-06-02 23:45:00,
2015-06-03 00:50:00,51.9,46.9,29.88,WSW,241,1.0,6.0,83,0.00,CLR,,0.00,0.0,WeatherDisplay:10.37,2015-06-02 23:50:00,
2015-06-03 00:55:00,51.9,47.2,29.88,West,267,3.5,3.5,84,0.00,BKN,,0.00,5.0,WeatherDisplay:10.37,2015-06-02 23:55:00,
2015-06-03 01:00:00,51.8,47.1,29.88,WSW,253,3.5,3.5,84,0.00,BKN,,0.00,5.0,WeatherDisplay:10.37,2015-06-03 00:00:00,
2015-06-03 01:05:00,51.8,47.4,29.88,West,259,4.6,4.6,85,0.00,BKN,,0.00,5.0,WeatherDisplay:10.37,2015-06-03 00:05:00,
2015-06-03 01:10:00,51.7,47.3,29.88,WSW,242,1.2,0.0,85,0.00,CLR,,0.00,5.0,WeatherDisplay:10.37,2015-06-03 00:10:00,
2015-06-03 01:15:00,51.6,47.2,29.89,West,276,9.2,9.2,85,0.00,BKN,,0.00,5.0,WeatherDisplay:10.37,2015-06-03 00:15:00,
2015-06-03 01:20:00,51.4,47.7,29.88,WSW,242,15.0,15.0,87,0.01,RA,,0.01,0.0,WeatherDisplay:10.37,2015-06-03 00:20:00,
2015-06-03 01:25:00,51.1,47.7,29.89,WNW,295,8.1,8.1,88,0.01,RA,,0.01,5.0,WeatherDisplay:10.37,2015-06-03 00:25:00,
2015-06-03 01:30:00,50.9,47.5,29.89,WSW,253,6.9,6.9,88,0.01,BKN,,0.01,0.0,WeatherDisplay:10.37,2015-06-03 00:30:00,
2015-06-03 01:35:00,50.7,47.3,29.89,SW,236,11.5,11.5,88,0.01,BKN,,0.01,5.0,WeatherDisplay:10.37,2015-06-03 00:35:00,
2015-06-03 01:40:00,50.4,47.0,29.89,West,262,4.0,4.0,88,0.01,BKN,,0.01,5.0,WeatherDisplay:10.37,2015-06-03 00:40:00,
2015-06-03 01:45:00,50.3,46.9,29.89,West,260,4.6,4.6,88,0.01,BKN,,0.01,0.0,WeatherDisplay:10.37,2015-06-03 00:45:00,
2015-06-03 01:50:00,50.2,46.8,29.89,WSW,248,2.3,2.3,88,0.01,CLR,,0.01,5.0,WeatherDisplay:10.37,2015-06-03 00:50:00,
2015-06-03 01:55:00,50.2,47.1,29.90,West,276,2.3,2.3,89,0.01,BKN,,0.01,0.0,WeatherDisplay:10.37,2015-06-03 00:55:00,
2015-06-03 02:00:00,50.1,47.0,29.90,WSW,244,6.9,6.9,89,0.01,BKN,,0.01,5.0,WeatherDisplay:10.37,2015-06-03 01:00:00,
2015-06-03 02:05:00,50.0,46.9,29.90,WSW,249,4.6,4.6,89,0.01,BKN,,0.01,5.0,WeatherDisplay:10.37,2015-06-03 01:05:00,
2015-06-03 02:10:00,49.9,47.1,29.90,SW,234,9.2,9.2,90,0.01,BKN,,0.01,5.0,WeatherDisplay:10.37,2015-06-03 01:10:00,
2015-06-03 02:15:00,49.9,47.1,29.90,WSW,252,0.0,0.0,90,0.01,BKN,,0.01,5.0,WeatherDisplay:10.37,2015-06-03 01:15:00,
2015-06-03 02:20:00,49.9,47.1,29.90,WSW,252,0.0,0.0,90,0.00,BKN,,0.01,5.0,WeatherDisplay:10.37,2015-06-03 01:20:00,
2015-06-03 02:25:00,49.8,47.0,29.90,WSW,246,1.2,1.2,90,0.00,BKN,,0.01,5.0,WeatherDisplay:10.37,2015-06-03 01:25:00,
2015-06-03 02:30:00,49.9,47.4,29.91,West,276,3.5,3.5,91,0.00,BKN,,0.01,5.0,WeatherDisplay:10.37,2015-06-03 01:30:00,
2015-06-03 02:35:00,49.9,47.4,29.91,WSW,256,4.6,4.6,91,0.00,BKN,,0.01,5.0,WeatherDisplay:10.37,2015-06-03 01:35:00,
2015-06-03 02:40:00,50.0,47.8,29.91,West,267,5.0,5.0,92,0.00,BKN,,0.01,5.0,WeatherDisplay:10.37,2015-06-03 01:40:00,
2015-06-03 02:45:00,50.1,47.9,29.91,SSW,210,7.0,7.0,92,0.02,RA,,0.02,5.0,WeatherDisplay:10.37,2015-06-03 01:45:00,
2015-06-03 02:50:00,50.0,47.8,29.91,SSW,210,17.3,17.3,92,0.04,RA,,0.05,5.0,WeatherDisplay:10.37,2015-06-03 01:50:00,
2015-06-03 02:55:00,49.6,47.1,29.91,West,269,18.4,18.4,91,0.05,RA,,0.06,5.0,WeatherDisplay:10.37,2015-06-03 01:55:00,
2015-06-03 03:00:00,49.5,47.0,29.91,WSW,256,8.1,8.5,91,0.05,RA,,0.06,5.0,WeatherDisplay:10.37,2015-06-03 02:00:00,
2015-06-03 03:05:00,49.3,47.1,29.92,West,260,9.2,9.2,92,0.05,BKN,,0.06,5.0,WeatherDisplay:10.37,2015-06-03 02:05:00,
2015-06-03 03:10:00,49.3,47.1,29.92,West,269,9.2,9.2,92,0.05,BKN,,0.06,5.0,WeatherDisplay:10.37,2015-06-03 02:10:00,
2015-06-03 03:15:00,49.3,47.4,29.92,WSW,254,3.5,3.5,93,0.05,BKN,,0.06,5.0,WeatherDisplay:10.37,2015-06-03 02:15:00,
2015-06-03 03:20:00,49.3,47.4,29.92,WSW,251,3.5,0.0,93,0.05,BKN,,0.06,5.0,WeatherDisplay:10.37,2015-06-03 02:20:00,
2015-06-03 03:25:00,49.4,47.5,29.92,West,267,5.0,5.0,93,0.06,RA,,0.06,5.0,WeatherDisplay:10.37,2015-06-03 02:25:00,
2015-06-03 03:30:00,49.5,47.8,29.92,SSW,204,10.4,10.4,94,0.06,RA,,0.07,5.0,WeatherDisplay:10.37,2015-06-03 02:30:00,
2015-06-03 03:35:00,49.4,47.5,29.92,WSW,258,5.8,5.8,93,0.06,RA,,0.07,5.0,WeatherDisplay:10.37,2015-06-03 02:35:00,
2015-06-03 03:40:00,49.3,47.4,29.92,WSW,245,6.9,6.9,93,0.06,BKN,,0.07,5.0,WeatherDisplay:10.37,2015-06-03 02:40:00,
2015-06-03 03:50:00,49.1,47.2,29.93,SW,218,9.2,9.2,93,0.02,BKN,,0.07,5.0,WeatherDisplay:10.37,2015-06-03 02:50:00,
2015-06-03 03:55:00,48.9,47.0,29.93,West,273,11.5,11.5,93,0.02,BKN,,0.07,5.0,WeatherDisplay:10.37,2015-06-03 02:55:00,
2015-06-03 04:00:00,48.8,46.9,29.93,West,268,3.5,3.5,93,0.02,BKN,,0.07,5.0,WeatherDisplay:10.37,2015-06-03 03:00:00,
2015-06-03 04:05:00,48.7,46.8,29.94,West,260,8.1,8.1,93,0.02,BKN,,0.07,5.0,WeatherDisplay:10.37,2015-06-03 03:05:00,
2015-06-03 04:10:00,48.6,46.7,29.94,West,273,5.0,5.0,93,0.02,BKN,,0.07,5.0,WeatherDisplay:10.37,2015-06-03 03:10:00,
2015-06-03 04:15:00,48.5,46.6,29.94,WSW,248,4.6,4.6,93,0.02,BKN,,0.07,5.0,WeatherDisplay:10.37,2015-06-03 03:15:00,
2015-06-03 04:20:00,48.5,46.6,29.94,West,262,3.5,3.5,93,0.02,BKN,,0.07,5.0,WeatherDisplay:10.37,2015-06-03 03:20:00,
2015-06-03 04:25:00,48.4,46.5,29.94,West,279,3.5,3.5,93,0.01,BKN,,0.07,5.0,WeatherDisplay:10.37,2015-06-03 03:25:00,
2015-06-03 04:30:00,48.4,46.5,29.95,West,270,3.5,3.5,93,0.00,BKN,,0.07,5.0,WeatherDisplay:10.37,2015-06-03 03:30:00,
2015-06-03 04:35:00,48.4,46.5,29.95,WSW,248,4.6,4.6,93,0.00,BKN,,0.07,5.0,WeatherDisplay:10.37,2015-06-03 03:35:00,
2015-06-03 04:40:00,48.4,46.5,29.95,West,277,4.6,4.6,93,0.00,BKN,,0.07,5.0,WeatherDisplay:10.37,2015-06-03 03:40:00,
2015-06-03 04:45:00,48.4,46.5,29.95,SW,227,6.0,6.0,93,0.00,BKN,,0.07,7.0,WeatherDisplay:10.37,2015-06-03 03:45:00,
2015-06-03 04:50:00,48.4,46.5,29.95,WSW,250,3.5,3.5,93,0.00,BKN,,0.07,7.0,WeatherDisplay:10.37,2015-06-03 03:50:00,
2015-06-03 04:55:00,48.4,46.8,29.96,West,260,3.5,3.5,94,0.00,BKN,,0.07,7.0,WeatherDisplay:10.37,2015-06-03 03:55:00,
2015-06-03 05:00:00,48.4,46.8,29.96,WSW,257,3.5,3.5,94,0.00,BKN,,0.07,9.0,WeatherDisplay:10.37,2015-06-03 04:00:00,
2015-06-03 05:05:00,48.4,46.8,29.97,West,270,5.8,5.8,94,0.00,BKN,,0.07,12.0,WeatherDisplay:10.37,2015-06-03 04:05:00,
2015-06-03 05:10:00,48.5,46.9,29.97,WSW,247,3.5,3.5,94,0.00,BKN,,0.07,14.0,WeatherDisplay:10.37,2015-06-03 04:10:00,
2015-06-03 05:15:00,48.5,46.9,29.97,West,266,4.6,4.6,94,0.00,BKN,,0.07,18.0,WeatherDisplay:10.37,2015-06-03 04:15:00,
2015-06-03 05:20:00,48.6,47.0,29.97,West,266,3.5,3.5,94,0.00,BKN,,0.07,25.0,WeatherDisplay:10.37,2015-06-03 04:20:00,
2015-06-03 05:25:00,48.6,47.0,29.98,WSW,248,3.5,3.5,94,0.00,BKN,,0.07,25.0,WeatherDisplay:10.37,2015-06-03 04:25:00,
2015-06-03 05:30:00,48.7,47.1,29.98,WSW,256,3.5,3.5,94,0.00,BKN,,0.07,26.0,WeatherDisplay:10.37,2015-06-03 04:30:00,
2015-06-03 05:35:00,48.6,46.7,29.98,West,261,5.8,5.8,93,0.00,BKN,,0.07,35.0,WeatherDisplay:10.37,2015-06-03 04:35:00,
2015-06-03 05:40:00,48.6,46.7,29.98,WSW,244,4.6,4.6,93,0.00,BKN,,0.07,42.0,WeatherDisplay:10.37,2015-06-03 04:40:00,
2015-06-03 05:45:00,48.7,46.8,29.98,SW,235,5.8,5.8,93,0.00,BKN,,0.07,49.0,WeatherDisplay:10.37,2015-06-03 04:45:00,
2015-06-03 05:50:00,48.7,47.1,29.99,SW,220,5.8,5.8,94,0.00,BKN,,0.07,49.0,WeatherDisplay:10.37,2015-06-03 04:50:00,
2015-06-03 05:56:00,48.8,47.2,29.99,West,262,4.6,4.6,94,0.00,BKN,,0.07,42.0,WeatherDisplay:10.37,2015-06-03 04:56:00,
2015-06-03 06:01:00,48.8,46.9,30.00,WSW,254,5.8,5.8,93,0.00,BKN,,0.07,40.0,WeatherDisplay:10.37,2015-06-03 05:01:00,
2015-06-03 06:06:00,48.8,46.9,30.00,West,260,3.5,3.5,93,0.00,BKN,,0.07,32.0,WeatherDisplay:10.37,2015-06-03 05:06:00,
2015-06-03 06:11:00,48.7,46.8,30.00,West,264,3.5,3.5,93,0.00,BKN,,0.07,44.0,WeatherDisplay:10.37,2015-06-03 05:11:00,
2015-06-03 06:16:00,48.7,46.8,30.00,WSW,244,6.9,6.9,93,0.00,BKN,,0.07,51.0,WeatherDisplay:10.37,2015-06-03 05:16:00,
2015-06-03 06:21:00,48.7,46.8,30.00,WSW,244,5.8,5.8,93,0.00,BKN,,0.07,58.0,WeatherDisplay:10.37,2015-06-03 05:21:00,
2015-06-03 06:26:00,48.7,46.8,30.01,West,275,3.5,3.5,93,0.00,BKN,,0.07,70.0,WeatherDisplay:10.37,2015-06-03 05:26:00,
2015-06-03 06:31:00,48.7,46.8,30.01,WSW,238,6.9,6.9,93,0.00,BKN,,0.07,84.0,WeatherDisplay:10.37,2015-06-03 05:31:00,
2015-06-03 06:36:00,48.7,46.8,30.01,WSW,242,6.9,6.9,93,0.00,BKN,,0.07,98.0,WeatherDisplay:10.37,2015-06-03 05:36:00,
2015-06-03 06:41:00,48.8,46.9,30.02,WSW,252,5.8,5.8,93,0.00,BKN,,0.07,116.0,WeatherDisplay:10.37,2015-06-03 05:41:00,
2015-06-03 06:46:00,48.8,46.9,30.02,WSW,256,5.8,5.8,93,0.00,BKN,,0.07,130.0,WeatherDisplay:10.37,2015-06-03 05:46:00,
2015-06-03 06:51:00,48.9,47.0,30.02,West,274,5.8,5.8,93,0.00,BKN,,0.07,148.0,WeatherDisplay:10.37,2015-06-03 05:51:00,
2015-06-03 06:56:00,49.0,47.3,30.03,WSW,253,6.9,6.9,94,0.00,BKN,,0.07,162.0,WeatherDisplay:10.37,2015-06-03 05:56:00,
2015-06-03 07:01:00,49.1,47.2,30.03,West,264,6.9,6.9,93,0.00,BKN,,0.07,179.0,WeatherDisplay:10.37,2015-06-03 06:01:00,
2015-06-03 07:06:00,49.3,47.4,30.03,WSW,244,5.8,5.8,93,0.00,BKN,,0.07,195.0,WeatherDisplay:10.37,2015-06-03 06:06:00,
2015-06-03 07:11:00,49.5,47.6,30.03,WSW,248,6.9,6.9,93,0.00,BKN,,0.07,214.0,WeatherDisplay:10.37,2015-06-03 06:11:00,
2015-06-03 07:16:00,49.8,47.6,30.04,West,279,5.8,5.8,92,0.00,BKN,,0.07,232.0,WeatherDisplay:10.37,2015-06-03 06:16:00,
2015-06-03 07:21:00,50.0,47.8,30.04,WSW,258,5.8,5.8,92,0.00,BKN,,0.07,248.0,WeatherDisplay:10.37,2015-06-03 06:21:00,
2015-06-03 07:26:00,50.3,48.1,30.04,West,264,5.0,5.0,92,0.00,BKN,,0.07,269.0,WeatherDisplay:10.37,2015-06-03 06:26:00,
2015-06-03 07:31:00,50.6,47.8,30.04,West,273,4.6,4.6,90,0.00,BKN,,0.07,292.0,WeatherDisplay:10.37,2015-06-03 06:31:00,
2015-06-03 07:36:00,50.9,47.8,30.05,West,260,5.8,5.8,89,0.00,BKN,,0.07,309.0,WeatherDisplay:10.37,2015-06-03 06:36:00,
2015-06-03 07:41:00,51.3,47.9,30.05,WSW,255,8.1,8.1,88,0.00,BKN,,0.07,350.0,WeatherDisplay:10.37,2015-06-03 06:41:00,
2015-06-03 07:46:00,51.4,47.0,30.06,WNW,286,8.1,8.1,85,0.00,BKN,,0.07,213.0,WeatherDisplay:10.37,2015-06-03 06:46:00,
2015-06-03 07:51:00,51.5,47.1,30.06,West,268,9.2,9.2,85,0.00,BKN,,0.07,107.0,WeatherDisplay:10.37,2015-06-03 06:51:00,
2015-06-03 07:56:00,51.4,46.4,30.06,NW,306,6.9,6.9,83,0.00,BKN,,0.07,246.0,WeatherDisplay:10.37,2015-06-03 06:56:00,
2015-06-03 08:01:00,51.3,46.3,30.06,WNW,296,8.1,8.1,83,0.00,BKN,,0.07,397.0,WeatherDisplay:10.37,2015-06-03 07:01:00,
2015-06-03 08:06:00,51.5,46.5,30.07,West,275,6.0,6.0,83,0.00,BKN,,0.07,418.0,WeatherDisplay:10.37,2015-06-03 07:06:00,
2015-06-03 08:11:00,52.0,46.0,30.07,West,260,10.4,10.4,80,0.00,BKN,,0.07,457.0,WeatherDisplay:10.37,2015-06-03 07:11:00,
2015-06-03 08:16:00,52.4,46.7,30.07,West,276,16.1,16.1,81,0.00,BKN,,0.07,504.0,WeatherDisplay:10.37,2015-06-03 07:16:00,
2015-06-03 08:21:00,52.8,46.5,30.07,WSW,250,11.5,11.5,79,0.00,BKN,,0.07,485.0,WeatherDisplay:10.37,2015-06-03 07:21:00,
2015-06-03 08:26:00,53.1,47.1,30.08,West,262,9.0,9.0,80,0.00,BKN,,0.07,313.0,WeatherDisplay:10.37,2015-06-03 07:26:00,
2015-06-03 08:31:00,53.0,46.3,30.08,WSW,254,11.5,11.5,78,0.00,BKN,,0.07,132.0,WeatherDisplay:10.37,2015-06-03 07:31:00,
2015-06-03 08:36:00,52.8,46.5,30.09,WSW,253,4.6,4.6,79,0.00,BKN,,0.07,98.0,WeatherDisplay:10.37,2015-06-03 07:36:00,
2015-06-03 08:41:00,52.9,47.2,30.09,West,269,5.8,5.8,81,0.00,BKN,,0.07,520.0,WeatherDisplay:10.37,2015-06-03 07:41:00,
2015-06-03 08:46:00,53.4,46.7,30.10,WSW,254,7.0,7.0,78,0.00,BKN,,0.07,540.0,WeatherDisplay:10.37,2015-06-03 07:46:00,
2015-06-03 08:51:00,53.9,46.5,30.10,West,265,8.1,8.1,76,0.00,BKN,,0.07,566.0,WeatherDisplay:10.37,2015-06-03 07:51:00,
2015-06-03 08:56:00,54.3,45.8,30.10,West,262,9.2,9.2,73,0.00,BKN,,0.07,589.0,WeatherDisplay:10.37,2015-06-03 07:56:00,
2015-06-03 09:01:00,54.7,46.6,30.10,West,264,12.0,12.0,74,0.00,BKN,,0.07,610.0,WeatherDisplay:10.37,2015-06-03 08:01:00,
2015-06-03 09:06:00,55.2,46.3,30.10,West,262,13.8,13.8,72,0.00,BKN,,0.07,659.0,WeatherDisplay:10.37,2015-06-03 08:06:00,
2015-06-03 09:11:00,55.4,46.5,30.10,West,262,8.1,8.1,72,0.00,BKN,,0.07,640.0,WeatherDisplay:10.37,2015-06-03 08:11:00,
2015-06-03 09:16:00,55.9,46.6,30.11,WSW,237,8.1,8.1,71,0.00,BKN,,0.07,636.0,WeatherDisplay:10.37,2015-06-03 08:16:00,
2015-06-03 09:21:00,56.2,46.5,30.11,West,277,9.2,9.2,70,0.00,BKN,,0.07,668.0,WeatherDisplay:10.37,2015-06-03 08:21:00,
2015-06-03 09:26:00,56.3,46.3,30.11,NNW,331,5.0,5.0,69,0.00,BKN,,0.07,668.0,WeatherDisplay:10.37,2015-06-03 08:26:00,
2015-06-03 09:31:00,56.5,47.2,30.11,West,266,3.5,3.5,71,0.00,BKN,,0.07,710.0,WeatherDisplay:10.37,2015-06-03 08:31:00,
2015-06-03 09:36:00,56.7,45.5,30.12,West,273,6.9,6.9,66,0.00,BKN,,0.07,694.0,WeatherDisplay:10.37,2015-06-03 08:36:00,
2015-06-03 09:41:00,56.9,45.7,30.12,West,269,8.1,8.1,66,0.00,BKN,,0.07,724.0,WeatherDisplay:10.37,2015-06-03 08:41:00,
2015-06-03 09:46:00,57.3,46.4,30.12,West,272,10.4,10.4,67,0.00,BKN,,0.07,738.0,WeatherDisplay:10.37,2015-06-03 08:46:00,
2015-06-03 09:51:00,57.8,46.9,30.12,West,269,4.6,4.6,67,0.00,BKN,,0.07,745.0,WeatherDisplay:10.37,2015-06-03 08:51:00,
2015-06-03 09:56:00,58.4,46.7,30.12,WSW,244,10.4,10.4,65,0.00,BKN,,0.07,835.0,WeatherDisplay:10.37,2015-06-03 08:56:00,
2015-06-03 10:01:00,58.6,47.3,30.12,West,260,9.2,9.2,66,0.00,BKN,,0.07,805.0,WeatherDisplay:10.37,2015-06-03 09:01:00,
2015-06-03 10:06:00,58.9,47.6,30.13,West,279,6.9,6.9,66,0.00,BKN,,0.07,183.0,WeatherDisplay:10.37,2015-06-03 09:06:00,
2015-06-03 10:11:00,59.2,47.0,30.13,West,268,7.0,7.0,64,0.00,BKN,,0.07,1005.0,WeatherDisplay:10.37,2015-06-03 09:11:00,
2015-06-03 10:16:00,59.3,47.1,30.13,West,272,7.0,7.0,64,0.00,BKN,,0.07,439.0,WeatherDisplay:10.37,2015-06-03 09:16:00,
2015-06-03 10:21:00,59.2,46.6,30.13,West,271,10.4,10.4,63,0.00,BKN,,0.07,397.0,WeatherDisplay:10.37,2015-06-03 09:21:00,
2015-06-03 10:26:00,59.1,46.5,30.14,West,275,9.2,9.2,63,0.00,BKN,,0.07,297.0,WeatherDisplay:10.37,2015-06-03 09:26:00,
2015-06-03 10:31:00,58.9,47.2,30.14,West,279,11.5,11.5,65,0.00,BKN,,0.07,288.0,WeatherDisplay:10.37,2015-06-03 09:31:00,
2015-06-03 10:36:00,58.7,47.0,30.14,West,277,4.6,4.6,65,0.00,BKN,,0.07,902.0,WeatherDisplay:10.37,2015-06-03 09:36:00,
2015-06-03 10:41:00,59.3,47.1,30.14,West,279,11.5,11.5,64,0.00,BKN,,0.07,990.0,WeatherDisplay:10.37,2015-06-03 09:41:00,
2015-06-03 10:46:00,60.2,46.7,30.14,West,269,15.0,15.0,61,0.00,BKN,,0.07,410.0,WeatherDisplay:10.37,2015-06-03 09:46:00,
2015-06-03 10:51:00,59.9,46.0,30.15,WNW,289,9.2,9.2,60,0.00,BKN,,0.07,276.0,WeatherDisplay:10.37,2015-06-03 09:51:00,
2015-06-03 10:56:00,59.7,46.7,30.15,West,267,8.1,8.1,62,0.00,BKN,,0.07,287.0,WeatherDisplay:10.37,2015-06-03 09:56:00,
2015-06-03 11:02:00,59.7,46.7,30.15,West,268,9.2,9.2,62,0.00,BKN,,0.07,213.0,WeatherDisplay:10.37,2015-06-03 10:02:00,
2015-06-03 11:07:00,59.4,46.4,30.15,WSW,249,8.1,8.1,62,0.00,BKN,,0.07,439.0,WeatherDisplay:10.37,2015-06-03 10:07:00,
2015-06-03 11:12:00,59.0,45.6,30.16,West,267,10.4,10.4,61,0.00,BKN,,0.07,323.0,WeatherDisplay:10.37,2015-06-03 10:12:00,
2015-06-03 11:17:00,58.5,45.9,30.16,West,281,6.9,6.9,63,0.00,BKN,,0.07,434.0,WeatherDisplay:10.37,2015-06-03 10:17:00,
2015-06-03 11:22:00,58.7,46.1,30.16,West,272,7.0,7.0,63,0.00,BKN,,0.07,338.0,WeatherDisplay:10.37,2015-06-03 10:22:00,
2015-06-03 11:27:00,59.1,45.2,30.17,WNW,288,7.0,7.0,60,0.00,BKN,,0.07,432.0,WeatherDisplay:10.37,2015-06-03 10:27:00,
2015-06-03 11:32:00,59.6,45.7,30.17,West,269,6.9,6.9,60,0.00,BKN,,0.07,287.0,WeatherDisplay:10.37,2015-06-03 10:32:00,
2015-06-03 11:37:00,59.6,46.1,30.17,WNW,282,4.6,4.6,61,0.00,BKN,,0.07,278.0,WeatherDisplay:10.37,2015-06-03 10:37:00,
2015-06-03 11:42:00,59.4,45.9,30.17,NW,306,3.5,3.5,61,0.00,BKN,,0.07,336.0,WeatherDisplay:10.37,2015-06-03 10:42:00,
2015-06-03 11:47:00,59.3,45.8,30.17,NNW,347,9.2,9.2,61,0.00,BKN,,0.07,547.0,WeatherDisplay:10.37,2015-06-03 10:47:00,
2015-06-03 11:52:00,59.8,45.0,30.17,SW,221,5.8,5.8,58,0.00,BKN,,0.07,490.0,WeatherDisplay:10.37,2015-06-03 10:52:00,
2015-06-03 11:57:00,60.5,46.1,30.17,SSW,213,6.9,6.9,59,0.00,BKN,,0.07,355.0,WeatherDisplay:10.37,2015-06-03 10:57:00,
2015-06-03 12:02:00,60.5,47.0,30.18,West,275,2.3,2.3,61,0.00,BKN,,0.07,334.0,WeatherDisplay:10.37,2015-06-03 11:02:00,